This demonstration page uses our WeatherBlox Daily Observations layout. Learn more.

Left ArrowRight Arrow

Hourly Observations for November 21, 2022

Temp ( °F °C ) Dew Point ( °F °C ) Humidity (%) Winds ( mph kmh ) Pressure ( in mb ) Visibility ( mi km ) Precip ( " mm )
12:15 am 00:15 Clear 30 -1 9 -13 40 40 N 7 11 30.46 1032 10 16 0.00 0.00
12:35 am 00:35 Clear 30 -1 9 -13 40 40 E 3 6 30.46 1032 10 16 0.00 0.00
12:55 am 00:55 Clear 28 -2 12 -11 50 50 E 3 6 30.47 1032 10 16 0.00 0.00
1:15 am 01:15 Clear 28 -2 12 -11 50 50 Calm 30.49 1032 10 16 0.00 0.00
1:35 am 01:35 Clear 28 -2 12 -11 50 50 ESE 3 6 30.49 1032 10 16 0.00 0.00
1:55 am 01:55 Clear 27 -3 12 -11 54 54 Calm 30.50 1033 10 16 0.00 0.00
2:15 am 02:15 Clear 25 -4 14 -10 63 63 Calm 30.51 1033 10 16 0.00 0.00
2:35 am 02:35 Clear 23 -5 16 -9 73 73 Calm 30.51 1033 10 16 0.00 0.00
2:55 am 02:55 Clear 25 -4 14 -10 63 63 SSW 3 6 30.51 1033 10 16 0.00 0.00
3:15 am 03:15 Clear 23 -5 16 -9 73 73 Calm 30.51 1033 10 16 0.00 0.00
3:35 am 03:35 Clear 23 -5 18 -8 79 79 Calm 30.51 1033 10 16 0.00 0.00
3:55 am 03:55 Clear 23 -5 16 -9 73 73 Calm 30.52 1034 10 16 0.00 0.00
4:15 am 04:15 Clear 23 -5 18 -8 79 79 SW 3 6 30.52 1034 10 16 0.00 0.00
4:35 am 04:35 Clear 23 -5 14 -10 68 68 WSW 5 7 30.53 1034 10 16 0.00 0.00
4:55 am 04:55 Clear 23 -5 14 -10 68 68 WSW 3 6 30.53 1034 10 16 0.00 0.00
5:15 am 05:15 Clear 23 -5 14 -10 68 68 WSW 5 7 30.54 1034 10 16 0.00 0.00
5:35 am 05:35 Clear 23 -5 14 -10 68 68 SW 3 6 30.54 1034 10 16 0.00 0.00
5:55 am 05:55 Clear 23 -5 14 -10 68 68 Calm 30.53 1034 10 16 0.00 0.00
6:15 am 06:15 Clear 21 -6 16 -9 79 79 WSW 3 6 30.54 1034 10 16 0.00 0.00
6:35 am 06:35 Clear 23 -5 16 -9 73 73 WSW 3 6 30.54 1034 10 16 0.00 0.00
6:55 am 06:55 Clear 23 -5 14 -10 68 68 Calm 30.54 1034 10 16 0.00 0.00
7:15 am 07:15 Sunny 23 -5 16 -9 73 73 Calm 30.54 1034 10 16 0.00 0.00
7:35 am 07:35 Sunny 23 -5 16 -9 73 73 Calm 30.54 1034 10 16 0.00 0.00
7:55 am 07:55 Sunny 27 -3 18 -8 68 68 Calm 30.54 1034 10 16 0.00 0.00
8:15 am 08:15 Sunny 28 -2 14 -10 54 54 SSE 3 6 30.54 1034 10 16 0.00 0.00
8:35 am 08:35 Sunny 30 -1 16 -9 54 54 Calm 30.53 1034 10 16 0.00 0.00
8:55 am 08:55 Sunny 32 0 14 -10 47 47 S 5 7 30.53 1034 10 16 0.00 0.00
9:15 am 09:15 Sunny 32 0 18 -8 55 55 S 7 11 30.53 1034 10 16 0.00 0.00
9:35 am 09:35 Sunny 34 1 18 -8 51 51 S 9 15 30.52 1034 10 16 0.00 0.00
9:55 am 09:55 Sunny 36 2 14 -10 40 40 SSW 15 24 30.52 1033 10 16 0.00 0.00
10:15 am 10:15 Sunny 36 2 14 -10 40 40 SSW 12 19 30.51 1033 10 16 0.00 0.00
10:35 am 10:35 Sunny 37 3 14 -10 38 38 S 13 20 30.50 1033 10 16 0.00 0.00
10:55 am 10:55 Sunny 39 4 16 -9 38 38 S 13 20 30.49 1032 10 16 0.00 0.00
11:35 am 11:35 undefined 41 5 16 -9 35 35 S 12 19 30.46 1032 N/A 0.00 0.00
11:55 am 11:55 Sunny 41 5 16 -9 35 35 S 15 24 30.45 1031 10 16 0.00 0.00
12:15 pm 12:15 undefined 43 6 18 -8 36 36 S 12 19 N/A N/A 0.00 0.00
12:35 pm 12:35 undefined N/A N/A N/A S 12 19 N/A N/A 0.00 0.00
12:55 pm 12:55 undefined N/A N/A N/A SSW 14 22 N/A N/A 0.00 0.00
1:15 pm 13:15 undefined N/A N/A N/A SSW 12 19 N/A N/A 0.00 0.00
1:35 pm 13:35 undefined N/A N/A N/A S 9 15 N/A N/A 0.00 0.00
1:55 pm 13:55 undefined N/A N/A N/A SSW 12 19 N/A N/A 0.00 0.00
2:15 pm 14:15 undefined N/A N/A N/A SSW 13 20 N/A N/A 0.00 0.00
2:35 pm 14:35 undefined N/A N/A N/A S 14 22 N/A N/A 0.00 0.00
2:55 pm 14:55 undefined 46 8 21 -6 36 36 SSW 10 17 N/A N/A 0.00 0.00
3:15 pm 15:15 undefined 46 8 21 -6 36 36 SSW 10 17 N/A N/A 0.00 0.00
3:55 pm 15:55 Sunny 46 8 21 -6 36 36 SSW 10 17 30.33 1027 10 16 0.00 0.00
4:15 pm 16:15 Sunny 46 8 21 -6 36 36 SSW 10 17 30.32 1027 10 16 0.00 0.00
4:35 pm 16:35 Sunny 45 7 21 -6 39 39 SSW 9 15 30.32 1027 10 16 0.00 0.00
4:55 pm 16:55 Clear 45 7 21 -6 39 39 SSW 9 15 30.32 1027 10 16 0.00 0.00
5:15 pm 17:15 Clear 43 6 21 -6 42 42 S 9 15 30.32 1027 10 16 0.00 0.00
5:35 pm 17:35 Clear 43 6 21 -6 42 42 SSW 7 11 30.32 1027 10 16 0.00 0.00
5:55 pm 17:55 Clear 43 6 21 -6 42 42 SSW 5 7 30.33 1027 10 16 0.00 0.00
6:15 pm 18:15 Clear 43 6 19 -7 39 39 S 6 9 30.32 1027 10 16 0.00 0.00
6:35 pm 18:35 Clear 41 5 19 -7 41 41 S 7 11 30.32 1027 10 16 0.00 0.00
6:55 pm 18:55 Clear 39 4 21 -6 48 48 S 6 9 30.33 1027 10 16 0.00 0.00
7:15 pm 19:15 Clear 39 4 19 -7 44 44 SSW 6 9 30.33 1027 10 16 0.00 0.00
7:35 pm 19:35 Clear 39 4 19 -7 44 44 SSW 6 9 30.33 1027 10 16 0.00 0.00
7:55 pm 19:55 Clear 37 3 21 -6 52 52 SSW 7 11 30.33 1027 10 16 0.00 0.00
8:15 pm 20:15 Clear 36 2 21 -6 55 55 SSW 5 7 30.34 1027 10 16 0.00 0.00
8:35 pm 20:35 Clear 34 1 23 -5 64 64 SW 5 7 30.33 1027 10 16 0.00 0.00
8:55 pm 20:55 Clear 32 0 23 -5 69 69 WSW 3 6 30.33 1027 10 16 0.00 0.00
9:15 pm 21:15 Clear 34 1 21 -6 59 59 WSW 5 7 30.33 1027 10 16 0.00 0.00
9:35 pm 21:35 Clear 34 1 23 -5 64 64 Calm 30.34 1027 10 16 0.00 0.00
9:55 pm 21:55 Clear 34 1 23 -5 64 64 WSW 3 6 30.34 1027 10 16 0.00 0.00
10:15 pm 22:15 Clear 32 0 21 -6 64 64 WSW 5 7 30.35 1028 10 16 0.00 0.00
10:35 pm 22:35 Clear 34 1 23 -5 64 64 SW 3 6 30.35 1028 10 16 0.00 0.00
10:55 pm 22:55 Clear 34 1 21 -6 59 59 WSW 5 7 30.37 1029 10 16 0.00 0.00
11:15 pm 23:15 Clear 34 1 21 -6 59 59 W 6 9 30.37 1029 10 16 0.00 0.00
11:35 pm 23:35 Clear 32 0 23 -5 69 69 W 6 9 30.37 1029 10 16 0.00 0.00
11:55 pm 23:55 Clear 34 1 23 -5 64 64 W 6 9 30.38 1029 10 16 0.00 0.00

Powered by AerisWeather